EHI
19 22 27 29 27 20 14 12 12 13 10 7 6 5 3 3 3 3 4 5 5 6 6 4 2 2 2 2 2 1 0 0 0 0 0 0 0 0 0 0 0 0 0
22 23 27 30 30 25 19 15 15 14 10 7 6 4 2 2 2 1 2 2 3 4 4 3 1 1 1 1 1 0 0 0 0 0 0 0 0 0 0 0 0 0 0
22 21 23 28 30 25 19 17 16 14 11 8 6 4 2 1 0 0 0 0 0 1 1 1 0 0 1 0 0 0 0 0 0 0 0 0 0 0 0 0 0 0 0
17 15 17 24 26 21 16 15 15 14 12 10 8 6 4 2 1 0 0 0 0 0 0 0 0 0 0 0 0 0 0 0 0 0 0 0 0 0 0 0 0 0 0
12 11 14 20 22 20 17 14 14 13 11 9 8 6 4 3 2 0 0 0 0 0 0 0 0 0 0 0 0 0 0 0 0 0 0 0 0 1 2 1 1 1 0
10 10 12 17 20 20 17 14 12 10 8 7 7 5 2 1 1 1 1 0 0 0 0 0 0 0 0 0 0 0 0 0 0 0 0 0 0 2 3 3 2 1 1
10 9 10 14 17 17 15 13 11 9 7 7 7 5 2 0 0 1 1 0 0 0 0 0 0 0 0 0 0 0 0 0 0 0 0 0 0 1 3 3 1 1 0
9 9 8 9 11 12 11 11 9 8 7 7 7 6 3 0 0 1 1 0 0 0 0 0 0 0 0 0 0 0 0 0 0 0 0 0 0 0 1 2 1 0 0
9 8 7 6 6 7 6 6 6 5 5 5 5 4 2 0 1 1 0 1 1 0 0 0 0 0 0 0 0 0 0 0 0 0 0 0 0 0 1 2 1 0 0
9 7 6 4 4 4 3 3 3 2 2 2 2 1 0 0 1 1 1 1 2 1 0 0 0 0 0 0 0 0 0 0 0 0 0 0 0 0 0 1 1 0 0
8 6 5 4 3 2 1 1 1 1 0 0 0 0 0 0 1 1 0 1 2 1 0 0 0 0 0 0 0 0 0 0 0 0 0 0 0 0 1 1 0 0 0
6 6 5 3 2 2 1 1 2 1 0 0 0 0 0 0 0 0 0 0 1 1 0 0 0 0 0 0 0 0 0 0 0 0 0 0 0 1 2 2 1 0 0
5 5 4 3 3 3 3 4 4 3 1 0 0 0 0 0 0 0 0 0 0 0 0 0 0 0 0 0 0 0 0 0 0 0 0 0 1 3 4 3 2 0 0
4 4 3 3 4 5 5 5 4 2 1 0 0 0 0 0 0 0 0 0 0 0 0 0 0 0 0 0 0 0 0 0 0 0 0 0 1 3 5 4 2 0 0
3 3 3 3 4 5 4 3 2 1 0 0 0 0 0 0 0 0 0 0 0 0 0 0 0 0 0 0 0 0 0 0 0 0 0 0 0 2 3 2 1 0 0
2 3 3 3 3 3 3 2 0 0 0 0 0 0 0 0 0 0 0 0 0 0 0 0 0 0 0 0 0 0 0 0 0 0 0 0 0 0 1 1 1 1 1
3 3 3 3 2 2 2 2 1 1 0 0 0 0 0 0 0 0 0 0 0 0 0 0 0 0 0 0 0 0 0 0 0 0 0 0 0 0 0 1 3 4 3
3 3 3 2 1 1 2 3 3 2 1 1 1 0 0 0 0 0 0 0 0 0 0 0 0 0 0 0 0 0 0 0 0 0 0 0 0 0 0 0 2 4 4
1 2 1 1 1 0 1 3 3 3 3 2 2 1 0 0 0 0 0 0 0 0 0 0 0 0 0 0 0 0 0 0 0 0 0 0 0 0 0 0 0 2 3
1 1 0 0 0 0 1 2 3 3 3 3 3 2 1 0 0 0 0 0 0 0 0 0 0 0 0 0 0 0 0 0 0 0 0 0 0 0 0 0 0 0 1
1 1 0 0 0 0 1 2 3 3 3 3 3 3 2 1 0 0 0 0 0 0 0 0 0 0 0 0 0 0 0 0 0 0 0 0 0 0 0 0 0 0 0
0 0 0 0 0 0 1 2 3 3 3 3 3 3 2 1 0 0 0 0 0 0 0 0 0 0 0 0 0 0 0 0 0 0 0 0 0 0 0 0 0 0 0
0 0 0 0 0 0 1 2 3 3 3 3 3 3 2 1 1 0 0 0 0 0 0 0 0 0 0 0 0 0 0 0 0 0 0 0 0 0 0 0 0 0 0
0 0 0 0 0 0 1 2 3 3 3 3 3 3 2 2 1 0 0 0 0 0 0 0 0 0 0 0 0 0 0 0 0 0 0 0 0 0 0 0 0 0 0
0 0 0 0 0 0 0 1 3 3 3 3 3 3 3 2 1 0 0 0 0 0 0 0 0 0 0 0 0 0 0 0 0 0 0 0 0 0 0 0 0 0 0
0 0 0 0 0 0 0 1 2 3 3 3 3 3 3 1 0 0 0 0 0 0 0 0 0 0 0 0 0 0 0 0 0 0 0 0 0 0 0 0 0 0 0
Wind_Speed
7 9 11 12 12 11 11 11 10 10 10 10 10 10 10 10 9 9 9 9 9 9 9 9 8 8 8 8 9 9 9 9 9 9 9 8 8 8 8 7 6 5 8
10 11 12 12 12 12 11 11 11 10 10 10 9 9 10 10 9 9 9 8 9 9 9 8 8 8 7 7 8 8 8 7 7 7 7 6 7 7 7 7 7 5 8
11 12 12 13 12 12 11 11 11 10 10 9 9 9 9 9 9 9 8 8 8 8 8 8 8 8 7 7 7 7 6 5 5 5 4 3 4 6 6 6 7 7 7
11 11 11 13 12 12 11 11 11 10 10 10 9 9 9 9 8 8 8 8 8 8 8 7 7 7 7 7 6 6 5 4 3 2 2 2 3 6 6 5 5 5 5
10 10 11 13 13 12 11 11 10 10 10 9 9 9 8 8 8 8 8 8 8 7 7 7 6 6 6 6 5 5 4 3 2 0 1 2 3 5 5 4 4 4 3
11 10 10 13 13 12 11 11 10 10 9 9 9 9 8 8 8 8 8 8 7 7 6 6 5 5 5 5 4 4 3 2 0 0 0 1 3 5 5 3 3 2 2
10 10 10 13 13 12 11 10 10 9 9 9 8 8 8 7 7 7 7 7 7 7 6 5 5 5 4 3 3 2 1 1 0 1 0 1 3 5 4 3 2 2 1
10 10 10 12 12 12 11 10 10 9 8 8 8 7 7 7 7 7 7 7 6 6 5 5 4 4 3 2 2 1 0 1 1 1 0 2 3 3 3 2 2 2 2
9 9 8 8 9 10 11 10 9 9 8 8 7 7 6 6 6 6 6 5 5 5 4 4 3 3 2 2 1 0 2 3 2 1 0 1 3 3 1 1 2 3 3
7 7 7 7 7 6 6 9 9 8 8 7 7 5 5 5 5 5 5 4 4 3 3 2 2 1 1 0 0 1 3 3 2 2 0 2 3 2 1 2 3 3 4
5 5 5 6 6 6 5 7 7 7 6 6 5 5 3 2 3 3 4 4 3 2 1 1 0 0 0 1 2 2 2 2 2 2 1 2 2 2 3 3 4 4 5
5 5 4 5 5 5 4 4 3 4 3 3 2 2 1 1 1 2 4 3 2 1 1 1 1 1 1 1 2 2 2 3 2 1 1 3 3 4 4 5 6 6 6
5 4 4 4 4 4 3 3 2 2 2 2 2 2 1 1 1 1 1 1 1 1 1 1 2 1 2 1 2 2 2 2 2 1 2 3 4 5 7 7 8 8 8
5 5 4 4 4 4 3 2 2 2 2 2 2 1 1 1 1 1 1 1 1 0 0 1 1 2 2 2 2 2 3 2 2 1 3 5 5 7 8 8 9 9 10
6 5 4 4 4 3 3 2 2 2 2 2 2 1 1 1 1 0 0 0 0 0 1 1 1 2 2 2 2 3 3 3 3 2 2 5 6 8 9 10 10 10 11
6 6 5 5 4 4 3 2 2 2 2 2 1 2 2 1 1 1 0 0 1 1 1 1 2 2 2 2 3 3 3 3 3 2 2 4 7 8 9 10 11 11 11
6 6 5 5 5 4 3 3 2 2 2 2 2 2 2 2 1 1 1 1 1 1 1 1 2 1 2 2 3 3 3 3 3 3 3 3 4 7 9 11 11 12 12
6 6 5 5 4 4 3 2 2 2 2 2 2 2 2 2 2 1 1 1 1 1 1 1 1 1 2 2 3 3 3 2 4 4 3 3 3 3 6 10 12 12 13
6 6 5 5 4 3 3 2 2 2 2 2 2 1 2 2 2 1 1 1 1 1 1 1 1 1 2 2 3 3 3 3 3 4 4 4 3 3 3 7 11 12 13
6 6 5 5 5 4 2 2 1 1 1 1 2 2 2 2 2 1 1 1 1 1 1 1 2 2 2 2 4 4 3 4 3 4 4 4 3 4 4 5 5 7 11
6 6 5 5 4 4 3 2 2 2 2 2 2 3 2 2 2 2 1 1 1 1 1 2 1 2 2 2 2 4 4 4 4 4 3 3 4 5 4 5 4 4 4
6 5 5 4 4 4 3 3 2 2 2 2 2 2 3 3 3 2 3 2 2 1 2 2 1 2 2 1 1 3 3 3 3 4 4 4 5 4 4 6 5 5 4
5 5 4 4 4 3 3 2 1 1 0 1 2 2 3 3 3 3 3 3 2 2 2 2 2 2 2 2 1 1 2 3 4 3 4 4 4 4 4 4 5 5 5
4 4 4 4 3 3 3 3 4 3 3 3 3 2 3 3 3 3 3 3 3 2 2 3 2 2 2 3 3 3 3 3 3 4 3 3 5 5 5 5 5 5 5
4 3 3 3 3 3 3 3 3 3 2 2 2 3 3 3 4 4 3 3 3 3 3 3 3 3 3 3 3 3 4 4 4 4 7 5 4 4 4 4 4 4 5
3 3 3 3 3 3 3 3 4 3 3 3 3 3 2 2 2 3 3 3 3 3 3 3 4 4 4 4 4 3 3 3 4 4 6 7 6 4 4 4 4 4 4
Wind_Direction
113 118 118 116 114 112 110 106 104 103 102 100 101 102 102 99 98 97 97 96 95 96 97 98 98 98 96 92 89 86 83 81 79 78 81 83 84 84 80 72 74 81 88
116 119 119 116 114 111 108 105 101 99 101 99 99 100 100 99 96 94 98 96 96 95 94 94 98 98 96 99 97 95 92 88 87 87 88 89 91 88 80 71 78 82 84
114 119 118 116 115 111 108 106 102 99 98 98 97 97 97 96 95 94 96 97 95 93 89 89 93 95 95 96 96 97 97 96 99 102 104 101 102 100 90 80 84 86 83
113 116 117 115 114 113 110 106 103 100 97 95 94 93 94 95 96 97 96 95 93 90 85 84 87 92 93 95 98 97 94 94 106 120 125 123 113 111 107 96 93 92 85
110 111 116 116 114 112 110 107 104 101 99 96 94 93 94 94 94 95 95 95 93 89 86 85 84 90 92 94 97 99 96 87 75 136 55 93 99 116 112 105 101 98 90
112 111 117 117 116 114 112 109 106 102 100 97 94 94 93 94 95 92 90 90 89 87 90 88 86 90 94 96 102 101 95 78 70 269 254 108 111 128 126 121 113 117 107
112 113 118 116 115 114 113 111 109 106 102 99 96 96 94 95 94 92 89 91 90 87 85 86 86 90 97 104 114 115 97 3 253 321 6 80 112 130 140 148 151 163 161
115 116 120 117 117 114 113 112 109 106 103 100 97 97 95 93 94 94 95 93 90 88 85 81 79 86 89 105 125 128 160 288 251 272 30 87 106 125 141 160 195 206 220
115 120 125 125 119 116 113 111 107 105 103 100 99 99 98 97 98 98 97 95 92 90 87 82 75 79 82 96 119 216 255 271 275 265 160 106 115 126 154 210 233 239 246
117 123 130 131 127 121 118 116 115 113 112 111 111 111 112 112 110 106 100 98 98 94 91 87 78 79 84 136 210 258 259 269 257 269 218 132 135 155 214 258 256 252 256
123 125 128 127 126 125 126 128 131 131 132 134 132 135 132 132 126 118 110 103 105 108 113 115 101 274 255 241 248 263 263 254 248 248 220 153 163 203 242 263 264 261 262
140 131 125 124 125 127 131 134 151 150 148 143 130 130 133 117 115 121 138 146 143 146 189 224 257 241 233 228 237 242 245 248 250 233 183 176 212 235 248 259 268 267 265
143 130 122 121 125 122 123 133 126 130 138 133 124 129 118 102 118 115 135 152 162 170 210 240 236 230 235 229 225 226 239 237 234 219 190 210 235 248 255 259 262 264 265
143 141 133 127 127 133 131 131 141 139 141 143 139 130 119 110 85 98 121 144 159 190 227 247 237 245 254 253 246 243 246 239 229 212 205 217 239 255 260 263 263 263 264
147 146 141 138 141 137 132 150 139 135 141 149 144 149 127 130 133 107 136 158 210 223 244 266 269 259 254 256 255 255 254 253 243 221 210 220 233 249 262 264 265 267 266
152 152 149 150 151 141 145 156 149 144 144 143 154 163 156 144 143 148 151 213 249 243 248 262 271 269 261 257 258 261 258 259 254 243 214 224 234 245 256 264 267 269 271
155 150 150 153 152 156 161 162 149 159 151 154 171 175 166 150 157 160 175 233 249 254 282 287 287 292 287 279 269 267 264 262 266 264 246 221 227 242 254 260 267 272 273
148 148 150 153 153 162 159 158 159 160 151 164 173 178 176 172 175 167 181 232 259 270 272 287 292 300 295 290 285 278 271 269 269 270 267 247 227 231 244 257 266 272 273
150 150 152 152 157 162 158 164 168 155 159 168 173 183 187 188 187 166 190 224 259 285 289 288 304 299 295 294 287 281 274 269 267 277 272 263 250 239 232 250 259 268 272
152 153 156 155 159 157 154 157 152 160 174 171 173 185 198 197 189 175 203 217 225 251 281 277 283 294 287 286 297 294 279 271 262 258 262 265 260 253 248 248 245 257 264
151 154 156 157 165 158 156 161 169 187 196 193 187 186 203 201 195 193 208 232 220 217 238 252 270 286 295 304 311 302 286 267 259 254 256 261 260 259 254 250 241 239 253
155 154 158 165 172 169 167 171 178 186 193 190 188 193 206 208 203 207 196 214 224 220 241 251 261 278 290 290 293 308 300 295 276 271 269 262 261 262 258 258 252 248 249
153 159 168 172 177 173 165 157 159 135 178 192 206 209 213 214 206 202 208 214 220 214 228 234 228 240 269 273 249 236 265 268 297 263 262 266 268 270 272 273 261 255 255
154 153 161 172 176 176 167 168 173 188 209 217 204 207 216 218 209 204 211 219 224 221 232 242 243 237 242 260 265 251 250 269 286 296 276 264 271 273 271 278 277 269 263
141 150 161 165 171 172 177 181 186 203 218 221 210 208 223 224 209 205 210 216 226 227 231 241 246 241 237 243 249 261 269 274 264 270 286 284 272 261 261 265 271 273 270
128 140 149 161 180 181 187 191 194 207 216 217 230 220 221 224 219 211 214 214 220 226 228 240 241 240 242 245 248 246 249 257 260 260 273 282 282 276 269 264 264 265 268